TRA5048 LGKO-EHAM

Flight info

Callsign TRA5048
Flight time N/A
Altitude 34000
Route LARKI UL609 MES DCT EVIVI DCT OKANA DCT BABIT DCT SASAL DCT DEXIT DCT MAPOX DCT NORKU
Aircraft B738/M-SDE2E3FGHIRWXY/LB1

Departure

Time 2026-04-30 07:37
Airport Kos International Airport "Ippokratis" (LGKO)

Arrival

Time N/A
Airport Amsterdam Airport Schiphol (EHAM)
Time Latitude Longitude Altitude Speed Heading
2026-04-30 07:14 36.80147 27.08929 410 ft 0 kts 58°
2026-04-30 07:27 36.80141 27.08917 418 ft 3 kts 58°
2026-04-30 07:28 36.80130 27.08895 408 ft 3 kts 58°
2026-04-30 07:28 36.80120 27.08874 409 ft 3 kts 73°
2026-04-30 07:28 36.80118 27.08852 408 ft 3 kts 107°
2026-04-30 07:28 36.80126 27.08834 414 ft 2 kts 146°
2026-04-30 07:29 36.80136 27.08826 411 ft 3 kts 148°
2026-04-30 07:29 36.80146 27.08817 412 ft 0 kts 148°
2026-04-30 07:29 36.80147 27.08817 413 ft 0 kts 148°
2026-04-30 07:31 36.80146 27.08817 412 ft 0 kts 148°
2026-04-30 07:32 36.80122 27.08836 411 ft 9 kts 147°
2026-04-30 07:32 36.80067 27.08880 418 ft 8 kts 148°
2026-04-30 07:32 36.80017 27.08919 413 ft 10 kts 148°
2026-04-30 07:32 36.79946 27.08973 412 ft 14 kts 155°
2026-04-30 07:33 36.79841 27.08983 415 ft 15 kts 178°
2026-04-30 07:33 36.79738 27.08988 412 ft 15 kts 178°
2026-04-30 07:33 36.79637 27.08992 413 ft 14 kts 178°
2026-04-30 07:33 36.79551 27.09042 412 ft 14 kts 148°
2026-04-30 07:34 36.79450 27.09120 413 ft 22 kts 148°
2026-04-30 07:34 36.79309 27.09231 409 ft 26 kts 148°
2026-04-30 07:34 36.79159 27.09346 403 ft 25 kts 148°
2026-04-30 07:34 36.79017 27.09457 397 ft 24 kts 148°
2026-04-30 07:35 36.78881 27.09563 395 ft 23 kts 148°
2026-04-30 07:35 36.78750 27.09667 392 ft 22 kts 147°
2026-04-30 07:35 36.78629 27.09759 391 ft 13 kts 149°
2026-04-30 07:35 36.78586 27.09831 387 ft 10 kts 147°
2026-04-30 07:36 36.78584 27.09788 389 ft 10 kts 341°
2026-04-30 07:36 36.78610 27.09774 390 ft 0 kts 328°
2026-04-30 07:36 36.78650 27.09743 391 ft 16 kts 328°
2026-04-30 07:36 36.79011 27.09463 397 ft 105 kts 328°
2026-04-30 07:37 36.79851 27.08812 491 ft 171 kts 330°
2026-04-30 07:37 36.80859 27.08029 1509 ft 174 kts 324°
2026-04-30 07:37 36.81476 27.06696 2464 ft 193 kts 283°
2026-04-30 07:37 36.81500 27.04919 2908 ft 217 kts 276°
2026-04-30 07:38 36.82002 27.03091 3280 ft 236 kts 303°
2026-04-30 07:38 36.82908 27.01363 3944 ft 241 kts 305°
2026-04-30 07:38 36.83839 26.99588 4698 ft 242 kts 304°
2026-04-30 07:38 36.84750 26.97812 5452 ft 251 kts 304°
2026-04-30 07:39 36.85761 26.95847 5749 ft 280 kts 304°
2026-04-30 07:39 36.86798 26.93829 6902 ft 272 kts 304°
2026-04-30 07:39 36.87830 26.91801 7736 ft 280 kts 303°
2026-04-30 07:39 36.88864 26.89747 8753 ft 279 kts 303°
2026-04-30 07:40 36.89896 26.87675 9624 ft 285 kts 302°
2026-04-30 07:40 36.90963 26.85546 10372 ft 294 kts 302°
2026-04-30 07:40 36.92099 26.83261 10493 ft 325 kts 302°
2026-04-30 07:40 36.93337 26.80798 10756 ft 347 kts 302°
2026-04-30 07:41 36.94641 26.78233 11550 ft 349 kts 302°
2026-04-30 07:41 36.95935 26.75626 12276 ft 356 kts 300°
2026-04-30 07:41 36.97563 26.73255 12786 ft 368 kts 324°
2026-04-30 07:41 36.99910 26.72016 13633 ft 373 kts 349°
2026-04-30 07:42 37.02504 26.72173 14394 ft 380 kts 12°
2026-04-30 07:42 37.05035 26.73220 15036 ft 386 kts 18°
2026-04-30 07:42 37.07555 26.74354 15864 ft 385 kts 17°
2026-04-30 07:42 37.10098 26.75369 16400 ft 393 kts 14°
2026-04-30 07:43 37.12763 26.76280 16914 ft 400 kts 12°
2026-04-30 07:43 37.15480 26.77102 17558 ft 403 kts 11°
2026-04-30 07:43 37.18225 26.77875 18242 ft 407 kts 10°
2026-04-30 07:43 37.21007 26.78634 18817 ft 410 kts 10°
2026-04-30 07:44 37.23810 26.79392 19375 ft 414 kts
2026-04-30 07:44 37.26635 26.80159 19935 ft 417 kts
2026-04-30 07:44 37.29483 26.80937 20490 ft 421 kts
2026-04-30 07:44 37.32359 26.81725 20998 ft 425 kts
2026-04-30 07:45 37.35259 26.82520 21510 ft 429 kts
2026-04-30 07:45 37.38217 26.82829 21965 ft 427 kts 351°
2026-04-30 07:45 37.41062 26.81895 22504 ft 423 kts 334°
2026-04-30 07:45 37.43583 26.80033 23029 ft 420 kts 319°
2026-04-30 07:46 37.45815 26.77656 23528 ft 422 kts 316°
2026-04-30 07:46 37.48028 26.75206 23932 ft 425 kts 316°
2026-04-30 07:46 37.50254 26.72734 24354 ft 428 kts 316°
2026-04-30 07:46 37.52497 26.70265 24799 ft 429 kts 317°
2026-04-30 07:47 37.54760 26.67794 25217 ft 431 kts 317°
2026-04-30 07:47 37.57034 26.65326 25621 ft 433 kts 317°
2026-04-30 07:47 37.59329 26.62843 26010 ft 435 kts 317°
2026-04-30 07:47 37.61631 26.60352 26392 ft 437 kts 317°
2026-04-30 07:48 37.63914 26.57879 26768 ft 439 kts 317°
2026-04-30 07:48 37.66234 26.55363 27153 ft 441 kts 317°
2026-04-30 07:48 37.68559 26.52840 27579 ft 441 kts 317°
2026-04-30 07:48 37.70887 26.50305 27933 ft 443 kts 317°
2026-04-30 07:49 37.73219 26.47759 28353 ft 443 kts 317°
2026-04-30 07:49 37.75542 26.45219 28885 ft 440 kts 317°
2026-04-30 07:49 37.77846 26.42698 29470 ft 437 kts 317°
2026-04-30 07:49 37.80138 26.40189 30024 ft 434 kts 317°
2026-04-30 07:50 37.82419 26.37689 30460 ft 433 kts 317°
2026-04-30 07:50 37.84698 26.35191 30815 ft 434 kts 317°
2026-04-30 07:50 37.86975 26.32693 31189 ft 433 kts 317°
2026-04-30 07:50 37.89248 26.30203 31600 ft 431 kts 317°
2026-04-30 07:51 37.91514 26.27723 32015 ft 430 kts 317°
2026-04-30 07:51 37.93011 26.26084 32281 ft 429 kts 317°
2026-04-30 07:51 37.95265 26.23613 32659 ft 428 kts 317°
2026-04-30 07:51 37.97514 26.21146 33057 ft 427 kts 317°
2026-04-30 07:52 37.99757 26.18683 33429 ft 426 kts 317°
2026-04-30 07:52 38.01995 26.16222 33797 ft 425 kts 317°
2026-04-30 07:52 38.04957 26.12962 34050 ft 428 kts 317°
2026-04-30 07:53 38.08741 26.08794 34058 ft 430 kts 317°
2026-04-30 07:53 38.13220 26.03857 34053 ft 423 kts 316°
2026-04-30 07:54 38.17666 25.98945 34063 ft 425 kts 316°
2026-04-30 07:54 38.22097 25.94041 34060 ft 426 kts 316°
2026-04-30 07:55 38.26752 25.89330 34054 ft 431 kts 326°
2026-04-30 07:55 38.31954 25.85512 34061 ft 432 kts 327°
2026-04-30 07:56 38.37181 25.81716 34056 ft 433 kts 327°
2026-04-30 07:56 38.42402 25.77884 34069 ft 433 kts 327°
2026-04-30 07:57 38.47609 25.74029 34072 ft 433 kts 327°
2026-04-30 07:57 38.52814 25.70162 34072 ft 432 kts 327°
2026-04-30 07:58 38.58009 25.66294 34063 ft 432 kts 327°
2026-04-30 07:58 38.63199 25.62423 34075 ft 431 kts 326°
2026-04-30 07:59 38.68377 25.58556 34077 ft 431 kts 326°
2026-04-30 07:59 38.73548 25.54687 34069 ft 430 kts 326°
2026-04-30 08:00 38.81283 25.48889 34079 ft 429 kts 326°
2026-04-30 08:00 38.86423 25.45027 34068 ft 428 kts 326°
2026-04-30 08:01 38.91557 25.41163 34087 ft 428 kts 326°
2026-04-30 08:01 38.96686 25.37297 34077 ft 428 kts 326°
2026-04-30 08:02 39.04348 25.31508 34082 ft 427 kts 326°
2026-04-30 08:03 39.14585 25.23751 34080 ft 427 kts 326°
2026-04-30 08:04 39.19705 25.19862 34081 ft 427 kts 326°
2026-04-30 08:04 39.24815 25.15974 34085 ft 426 kts 326°
2026-04-30 08:05 39.29922 25.12081 34088 ft 426 kts 326°
2026-04-30 08:05 39.35019 25.08189 34083 ft 426 kts 326°
2026-04-30 08:06 39.40117 25.04290 34101 ft 425 kts 325°
2026-04-30 08:06 39.45210 25.00388 34099 ft 425 kts 325°
2026-04-30 08:07 39.50300 24.96481 34090 ft 425 kts 325°
2026-04-30 08:07 39.55349 24.92599 34086 ft 424 kts 325°
2026-04-30 08:08 39.60452 24.88670 34091 ft 424 kts 325°
2026-04-30 08:08 39.65484 24.84788 34108 ft 423 kts 325°
2026-04-30 08:09 39.70539 24.80881 34094 ft 423 kts 325°
2026-04-30 08:09 39.75590 24.76971 34088 ft 422 kts 325°
2026-04-30 08:10 39.80632 24.73061 34092 ft 422 kts 325°
2026-04-30 08:10 39.85666 24.69151 34096 ft 422 kts 325°
2026-04-30 08:11 39.90703 24.65231 34115 ft 422 kts 325°
2026-04-30 08:11 39.95739 24.61305 34105 ft 422 kts 325°
2026-04-30 08:12 40.00777 24.57371 34097 ft 422 kts 325°
2026-04-30 08:12 40.05783 24.53455 34098 ft 422 kts 325°
2026-04-30 08:13 40.10816 24.49512 34101 ft 422 kts 325°
2026-04-30 08:13 40.15855 24.45557 34101 ft 422 kts 325°
2026-04-30 08:14 40.20891 24.41597 34104 ft 422 kts 325°
2026-04-30 08:14 40.25927 24.37630 34105 ft 422 kts 325°
2026-04-30 08:15 40.30963 24.33656 34101 ft 422 kts 325°
2026-04-30 08:15 40.35993 24.29680 34100 ft 422 kts 325°
2026-04-30 08:16 40.41029 24.25693 34112 ft 423 kts 325°
2026-04-30 08:16 40.46062 24.21700 34101 ft 423 kts 325°
2026-04-30 08:17 40.51093 24.17701 34097 ft 423 kts 325°
2026-04-30 08:17 40.56122 24.13699 34098 ft 422 kts 325°
2026-04-30 08:18 40.61145 24.09693 34091 ft 422 kts 324°
2026-04-30 08:18 40.66130 24.05711 34105 ft 422 kts 324°
2026-04-30 08:19 40.71142 24.01699 34097 ft 421 kts 324°
2026-04-30 08:19 40.76141 23.97691 34091 ft 420 kts 324°
2026-04-30 08:20 40.81134 23.93681 34084 ft 420 kts 324°
2026-04-30 08:20 40.86117 23.89671 34091 ft 419 kts 324°
2026-04-30 08:21 40.91096 23.85658 34087 ft 419 kts 324°
2026-04-30 08:21 40.96066 23.81644 34081 ft 418 kts 324°
2026-04-30 08:22 41.01028 23.77630 34083 ft 417 kts 324°
2026-04-30 08:22 41.05940 23.73649 34080 ft 416 kts 323°
2026-04-30 08:23 41.10876 23.69643 34067 ft 416 kts 323°
2026-04-30 08:23 41.15801 23.65637 34086 ft 415 kts 323°
2026-04-30 08:24 41.20723 23.61626 34059 ft 415 kts 323°
2026-04-30 08:24 41.25635 23.57617 34065 ft 413 kts 323°
2026-04-30 08:25 41.30527 23.53616 34060 ft 412 kts 323°
2026-04-30 08:25 41.35399 23.49625 34056 ft 411 kts 323°
2026-04-30 08:26 41.40266 23.45641 34067 ft 411 kts 324°
2026-04-30 08:26 41.45375 23.42116 34057 ft 415 kts 328°
2026-04-30 08:27 41.50545 23.38834 34070 ft 414 kts 328°
2026-04-30 08:27 41.55741 23.35507 34070 ft 414 kts 328°
2026-04-30 08:28 41.60920 23.32141 34077 ft 414 kts 327°
2026-04-30 08:28 41.66094 23.28752 34072 ft 414 kts 327°
2026-04-30 08:29 41.71266 23.25352 34071 ft 415 kts 327°
2026-04-30 08:29 41.76447 23.21941 34082 ft 415 kts 327°
2026-04-30 08:30 41.81625 23.18527 34086 ft 415 kts 327°
2026-04-30 08:30 41.86794 23.15112 34103 ft 414 kts 327°
2026-04-30 08:31 41.91917 23.11723 34106 ft 412 kts 327°
2026-04-30 08:31 41.97051 23.08319 34100 ft 410 kts 327°
2026-04-30 08:32 42.02151 23.04933 34108 ft 408 kts 326°
2026-04-30 08:32 42.07227 23.01556 34113 ft 406 kts 326°
2026-04-30 08:33 42.12273 22.98193 34124 ft 404 kts 326°
2026-04-30 08:33 42.17305 22.94831 34116 ft 404 kts 326°
2026-04-30 08:34 42.22333 22.91464 34133 ft 404 kts 326°
2026-04-30 08:34 42.27375 22.88081 34196 ft 406 kts 326°
2026-04-30 08:35 42.32448 22.84676 34153 ft 408 kts 326°
2026-04-30 08:35 42.37524 22.81265 34155 ft 407 kts 326°
2026-04-30 08:36 42.42593 22.77851 34167 ft 406 kts 326°
2026-04-30 08:36 42.47622 22.74459 34173 ft 402 kts 326°
2026-04-30 08:37 42.52602 22.71094 34170 ft 397 kts 325°
2026-04-30 08:37 42.57512 22.67769 34188 ft 393 kts 325°
2026-04-30 08:38 42.62358 22.64476 34188 ft 391 kts 325°
2026-04-30 08:38 42.67228 22.61162 34195 ft 392 kts 325°
2026-04-30 08:39 42.72116 22.57831 34238 ft 394 kts 325°
2026-04-30 08:39 42.77034 22.54474 34217 ft 395 kts 325°
2026-04-30 08:40 42.81953 22.51115 34237 ft 396 kts 324°
2026-04-30 08:40 42.86582 22.47273 34219 ft 384 kts 314°
2026-04-30 08:41 42.90751 22.42725 34246 ft 383 kts 314°
2026-04-30 08:41 42.94917 22.38190 34239 ft 383 kts 314°
2026-04-30 08:42 42.99095 22.33653 34260 ft 384 kts 314°
2026-04-30 08:42 43.03248 22.29144 34248 ft 384 kts 314°
2026-04-30 08:43 43.07425 22.24605 34267 ft 383 kts 314°
2026-04-30 08:43 43.11596 22.20064 34267 ft 383 kts 314°
2026-04-30 08:44 43.15767 22.15515 34266 ft 384 kts 314°
2026-04-30 08:44 43.19940 22.10956 34312 ft 384 kts 313°
2026-04-30 08:45 43.24124 22.06375 34297 ft 386 kts 313°
2026-04-30 08:45 43.28315 22.01780 34285 ft 385 kts 313°
2026-04-30 08:46 43.32500 21.97185 34285 ft 385 kts 313°
2026-04-30 08:46 43.36682 21.92582 34286 ft 385 kts 313°
2026-04-30 08:47 43.40834 21.88004 34290 ft 385 kts 313°
2026-04-30 08:47 43.45021 21.83380 34313 ft 386 kts 313°
2026-04-30 08:48 43.49214 21.78739 34301 ft 388 kts 313°
2026-04-30 08:48 43.53422 21.74074 34295 ft 389 kts 313°
2026-04-30 08:49 43.57640 21.69389 34286 ft 390 kts 313°
2026-04-30 08:49 43.61871 21.64683 34287 ft 391 kts 313°
2026-04-30 08:50 43.65386 21.60765 34279 ft 392 kts 314°
2026-04-30 08:50 43.69638 21.56016 34281 ft 394 kts 314°
2026-04-30 08:51 43.73923 21.51220 34301 ft 398 kts 314°
2026-04-30 08:51 43.78241 21.46381 34293 ft 401 kts 314°
2026-04-30 08:52 43.82594 21.41493 34293 ft 404 kts 314°
2026-04-30 08:52 43.86967 21.36574 34284 ft 406 kts 315°
2026-04-30 08:53 43.91353 21.31632 34292 ft 406 kts 315°
2026-04-30 08:53 43.95733 21.26687 34331 ft 406 kts 315°
2026-04-30 08:54 44.00121 21.21723 34299 ft 406 kts 315°